Flag for Germany Weather past 2 weeks in Meppen, Lower Saxony, Germany

Now
55 °F

Cool.


Feels Like: 55 °F
Forecast: 50 / 69 °F
Wind: 3 mph from Northeast

Location: Meppen


UV Index: 3 (Moderate)

Visibility: 4 mi


Pressure: 30.13 "Hg

Humidity: 81%

Dew point: 49 °F

Location of MeppenLocation

Historic Weather in Meppen

°F

Meppen temperature yesterday

Maximum temperature yesterday: 66 °F (at 7:00 PM)
Minimum temperature yesterday: 44 °F (at 6:00 AM)
Average temperature yesterday: 56 °F

Past Weeks' High & Low Weather Summary

 TemperatureHumidityPressure
High69 °F (Apr 20, 4:00 PM)97% (Apr 23, 9:00 AM)30.47 "Hg (Apr 23, 9:00 AM)
Low28 °F (Apr 16, 7:00 AM)25% (Apr 16, 6:00 PM)29.68 "Hg (Apr 21, 7:00 PM)
Average50 °F71%30.05 "Hg
* Reported Apr 8 9:00 PM — Apr 23 9:00 PM, Meppen, Weather by CustomWeather, © 2014

Note: Actual official high and low records may vary slightly from our data, if they occured in-between our weather recording intervals... More about our weather records

Advertising

Historic Weather Conditions — Data for Previous 24 hours

 ConditionsComfort  
Time TempWeatherWind HumidityBarometerVisibility
9:00 PM
Apr 23
55 °FCool.3 mph81%30.13 "Hg4 mi
8:00 PMN/APassing clouds.5 mphN/AN/A2 mi
7:00 PM65 °FMild.2 mph51%30.09 "Hg5 mi
6:00 PM67 °FMild.2 mph37%30.09 "Hg6 mi
5:00 PMN/APassing clouds.22 mphN/AN/A2 mi
4:00 PM67 °FMild.2 mph40%30.10 "Hg5 mi
3:00 PM68 °FMild.3 mph42%30.11 "Hg4 mi
2:00 PM67 °FPartly sunny.3 mph43%30.12 "Hg15 mi
1:00 PM66 °FPartly sunny.N/A43%30.12 "Hg11 mi
12:00 PM64 °FPartly sunny.2 mph50%30.13 "Hg8 mi
10:00 AM57 °FFog.2 mph94%30.12 "Hg3 mi
9:00 AM51 °FFog.1 mph97%30.11 "Hg1 mi
8:00 AM43 °FFog.1 mph96%30.10 "Hg0 mi
7:00 AM40 °FFog.1 mph95%30.09 "Hg0 mi
6:00 AM40 °FQuite cool.No wind95%30.08 "Hg0 mi
4:00 AM43 °FQuite cool.N/A94%30.06 "Hg0 mi
3:00 AM44 °FQuite cool.No wind94%30.05 "Hg0 mi
1:00 AM47 °FCool.N/A93%30.03 "Hg1 mi
12:00 AM49 °FCool.1 mph90%30.01 "Hg2 mi
10:00 PM
Apr 22
55 °FCool.2 mph75%29.99 "Hg4 mi
Weather by CustomWeather, © 2014

See weather overview